Weather History for Sylvania, GA

Change the Weather History Date:

Wednesday, July 24, 2013

  Actual Average (KSAV) Record (KSAV)
Temperature  
Mean Temperature 80 °F 83 °F  
Max Temperature 87 °F 93 °F 104 °F (1952)
Min Temperature 73 °F 73 °F 64 °F (2007)
Degree Days  
Heating Degree Days 0 0  
Month to date heating degree days 0  
Since 1 June heating degree days 0  
Since 1 July heating degree days 0  
Cooling Degree Days 15 18  
Month to date cooling degree days 424  
Year to date cooling degree days 1273  
Since 1 June cooling degree days 870  
Growing Degree Days 30 (Base 50)    
Moisture  
Dew Point 72 °F    
Average Humidity 81    
Maximum Humidity 90    
Minimum Humidity 61    
Precipitation  
Precipitation 0.00 in 0.19 in 2.52 in (1904)
Month to date precipitation 4.17  
Year to date precipitation 26.38  
Sea Level Pressure  
Sea Level Pressure 29.84 in    
Wind  
Wind Speed 3 mph (West)    
Max Wind Speed 18 mph    
Max Gust Speed 29 mph    
Visibility 9 miles    
Events Rain , Thunderstorm    
T = Trace of Precipitation, MM = Missing Value Source: NWS Daily Summary

Daily Weather History Graph

Daily Weather History Graph

Search for Another Location

Airport:

Trip Planner

Search our weather history database for the weather conditions in past years. The results will help you decide how hot, cold, wet, or windy it might be!

Date:

Astronomy

Jul. 24, 2013 Rise Set
Actual Time 6:35 AM EDT 8:30 PM EDT
Civil Twilight 6:07 AM EDT 8:57 PM EDT
Nautical Twilight 5:34 AM EDT 9:30 PM EDT
Astronomical Twilight 4:59 AM EDT 10:05 PM EDT
Moon 9:48 PM EDT (7/24) 8:43 AM EDT (7/24)
Length of Visible Light 14h 49m
Length of Day
13h 54m
Waning Gibbous, 95% of the Moon is Illuminated
Jul 24
Waning Gibbous
Jul 29
Last Quarter
Aug 6
New
Aug 14
First Quarter
Aug 20
Full

Hourly Weather History & Observations

Time (EDT) Temp. Heat Index Dew Point Humidity Pressure Visibility Wind Dir Wind Speed Gust Speed Precip Events Conditions
12:15 AM 75.6 °F - 70.7 °F 85% 29.87 in 10.0 mi WSW 3.5 mph - N/A   Clear
12:35 AM 75.6 °F - 70.7 °F 85% 29.87 in 10.0 mi WSW 3.5 mph - N/A   Clear
12:55 AM 75.2 °F - 70.3 °F 85% 29.86 in 10.0 mi Calm Calm - N/A   Clear
1:15 AM 75.0 °F - 70.2 °F 85% 29.86 in 10.0 mi Calm Calm - N/A   Clear
1:35 AM 74.3 °F - 70.3 °F 87% 29.86 in 10.0 mi Calm Calm - N/A   Clear
1:55 AM 74.1 °F - 70.5 °F 88% 29.86 in 10.0 mi Calm Calm - N/A   Clear
2:15 AM 73.9 °F - 70.7 °F 90% 29.85 in 10.0 mi SW 3.5 mph - N/A   Clear
2:35 AM 74.3 °F - 70.7 °F 88% 29.85 in 10.0 mi SW 3.5 mph - N/A   Clear
2:55 AM 74.3 °F - 70.7 °F 88% 29.84 in 10.0 mi SW 3.5 mph - N/A   Clear
3:15 AM 74.3 °F - 70.7 °F 88% 29.84 in 10.0 mi Calm Calm - N/A   Clear
3:35 AM 74.3 °F - 70.9 °F 89% 29.84 in 10.0 mi Calm Calm - N/A   Clear
3:55 AM 74.5 °F - 71.1 °F 89% 29.83 in 10.0 mi Calm Calm - N/A   Clear
4:15 AM 74.5 °F - 71.2 °F 90% 29.82 in 10.0 mi Calm Calm - N/A   Clear
4:35 AM 74.7 °F - 71.6 °F 90% 29.82 in 10.0 mi Calm Calm - N/A   Clear
4:55 AM 74.7 °F - 71.6 °F 90% 29.82 in 7.0 mi Calm Calm - N/A   Clear
5:15 AM 74.8 °F - 71.6 °F 90% 29.81 in 7.0 mi Calm Calm - N/A   Clear
5:35 AM 74.8 °F - 71.6 °F 90% 29.83 in 10.0 mi West 5.8 mph - N/A   Scattered Clouds
5:55 AM 74.8 °F - 71.6 °F 90% 29.83 in 10.0 mi WNW 5.8 mph - N/A   Mostly Cloudy
6:15 AM 74.8 °F - 71.1 °F 88% 29.83 in 10.0 mi West 4.6 mph - N/A   Mostly Cloudy
6:35 AM 74.7 °F - 70.9 °F 88% 29.83 in 10.0 mi Calm Calm - N/A   Scattered Clouds
6:55 AM 74.7 °F - 71.1 °F 88% 29.84 in 10.0 mi Calm Calm - N/A   Clear
7:15 AM 74.5 °F - 70.9 °F 88% 29.84 in 7.0 mi Calm Calm - N/A   Clear
7:35 AM 74.7 °F - 71.2 °F 89% 29.85 in 7.0 mi WSW 3.5 mph - N/A   Mostly Cloudy
7:55 AM 75.2 °F - 71.6 °F 89% 29.85 in 10.0 mi West 3.5 mph - N/A   Overcast
8:15 AM 75.4 °F - 71.6 °F 88% 29.86 in 10.0 mi West 3.5 mph - N/A   Overcast
8:35 AM 76.1 °F - 71.6 °F 86% 29.86 in 10.0 mi West 6.9 mph - N/A   Overcast
8:55 AM 76.5 °F - 71.2 °F 84% 29.86 in 10.0 mi WNW 5.8 mph - N/A   Overcast
9:15 AM 76.5 °F - 70.9 °F 83% 29.86 in 10.0 mi NW 8.1 mph - N/A   Overcast
9:35 AM 76.3 °F - 70.3 °F 82% 29.86 in 10.0 mi WNW 6.9 mph - N/A   Overcast
9:55 AM 76.3 °F - 70.7 °F 83% 29.86 in 10.0 mi West 4.6 mph - N/A   Overcast
10:15 AM 76.5 °F - 70.5 °F 82% 29.86 in 10.0 mi WSW 5.8 mph - N/A   Overcast
10:35 AM 76.6 °F - 70.5 °F 81% 29.85 in 10.0 mi West 3.5 mph - N/A   Overcast
10:55 AM 77.2 °F - 70.7 °F 80% 29.85 in 10.0 mi Calm Calm - N/A   Mostly Cloudy
11:15 AM 77.4 °F - 70.9 °F 80% 29.86 in 10.0 mi West 3.5 mph - N/A   Mostly Cloudy
11:35 AM 77.9 °F - 71.2 °F 80% 29.86 in 10.0 mi West 3.5 mph - N/A   Overcast
11:55 AM 78.1 °F - 71.1 °F 79% 29.86 in 10.0 mi WSW 4.6 mph - N/A   Overcast
12:15 PM 78.4 °F - 71.6 °F 79% 29.86 in 7.0 mi West 5.8 mph - N/A   Overcast
12:35 PM 78.3 °F - 71.6 °F 80% 29.87 in 10.0 mi West 4.6 mph - N/A   Overcast
12:55 PM 78.1 °F - 71.4 °F 80% 29.87 in 7.0 mi West 4.6 mph - N/A   Overcast
1:15 PM 78.4 °F - 71.6 °F 79% 29.87 in 7.0 mi West 5.8 mph - N/A   Overcast
1:35 PM 78.3 °F - 71.2 °F 79% 29.86 in 7.0 mi West 4.6 mph - N/A   Overcast
1:55 PM 79.0 °F - 71.8 °F 78% 29.86 in 7.0 mi West 5.8 mph - N/A   Overcast
2:15 PM 79.2 °F - 71.8 °F 78% 29.86 in 7.0 mi West 3.5 mph - N/A   Overcast
2:35 PM 80.4 °F 84.5 °F 72.1 °F 76% 29.85 in 7.0 mi West 3.5 mph - N/A   Overcast
2:55 PM 81.7 °F 86.5 °F 72.3 °F 73% 29.84 in 10.0 mi WNW 4.6 mph - N/A   Overcast
3:15 PM 82.8 °F 88.2 °F 72.3 °F 71% 29.84 in 10.0 mi WNW 3.5 mph - N/A   Mostly Cloudy
3:35 PM 83.3 °F 89.0 °F 72.5 °F 70% 29.83 in 10.0 mi West 5.8 mph - N/A   Mostly Cloudy
3:55 PM 84.9 °F 91.4 °F 73.0 °F 67% 29.83 in 10.0 mi WNW 3.5 mph - N/A   Mostly Cloudy
4:15 PM 84.9 °F 91.8 °F 73.4 °F 68% 29.81 in 10.0 mi SSW 4.6 mph - N/A   Scattered Clouds
4:35 PM 84.9 °F 92.1 °F 73.6 °F 69% 29.80 in 10.0 mi SW 3.5 mph - N/A   Scattered Clouds
4:55 PM 86.4 °F 93.8 °F 73.4 °F 65% 29.80 in 10.0 mi Calm Calm - N/A   Scattered Clouds
5:15 PM 87.4 °F 95.3 °F 73.2 °F 63% 29.80 in 10.0 mi WNW 3.5 mph - N/A   Scattered Clouds
5:35 PM 87.3 °F 94.9 °F 73.2 °F 63% 29.79 in 10.0 mi Calm Calm - N/A   Scattered Clouds
5:55 PM 87.8 °F 95.2 °F 73.0 °F 61% 29.79 in 10.0 mi Calm Calm - N/A   Clear
6:15 PM 86.4 °F 94.6 °F 74.3 °F 67% 29.79 in 10.0 mi Calm Calm - N/A   Clear
6:35 PM 87.4 °F 95.8 °F 73.8 °F 64% 29.79 in 10.0 mi WSW 3.5 mph - N/A   Clear
6:55 PM 86.0 °F 94.2 °F 74.3 °F 68% 29.79 in 10.0 mi SW 3.5 mph - N/A   Clear
7:15 PM 84.2 °F 93.4 °F 76.3 °F 77% 29.80 in 10.0 mi Calm Calm - N/A   Clear
7:35 PM 83.8 °F 92.5 °F 76.1 °F 77% 29.81 in 10.0 mi Calm Calm - N/A   Clear
7:55 PM 83.3 °F 91.8 °F 76.3 °F 79% 29.82 in 7.0 mi Calm Calm - N/A   Clear
8:15 PM 82.8 °F 91.0 °F 76.5 °F 81% 29.83 in 7.0 mi Calm Calm - N/A   Scattered Clouds
8:35 PM 82.6 °F 90.5 °F 76.1 °F 81% 29.82 in 10.0 mi Calm Calm - N/A Thunderstorm Mostly Cloudy
8:55 PM 79.7 °F - 69.1 °F 70% 29.86 in 10.0 mi North 16.1 mph 25.3 mph N/A Thunderstorm Thunderstorm
9:15 PM 73.8 °F - 69.3 °F 86% 29.86 in 1.2 mi NNW 18.4 mph 28.8 mph N/A Rain , Thunderstorm Heavy Thunderstorms and Rain
9:35 PM 74.1 °F - 69.8 °F 86% 29.86 in 7.0 mi WNW 9.2 mph - N/A Rain Light Rain
9:55 PM 74.3 °F - 70.0 °F 86% 29.86 in 10.0 mi West 3.5 mph - N/A Rain Light Rain
10:15 PM 74.5 °F - 70.3 °F 87% 29.86 in 7.0 mi Calm Calm - N/A Rain Light Rain
10:35 PM 74.5 °F - 70.7 °F 88% 29.86 in 10.0 mi NW 3.5 mph - N/A Rain Light Rain
10:55 PM 74.3 °F - 70.7 °F 88% 29.85 in 10.0 mi WNW 4.6 mph - N/A   Scattered Clouds
11:15 PM 74.3 °F - 70.7 °F 88% 29.84 in 10.0 mi WNW 4.6 mph - N/A   Light Drizzle
11:35 PM 74.1 °F - 70.3 °F 88% 29.83 in 10.0 mi WNW 3.5 mph - N/A   Scattered Clouds
11:55 PM 73.9 °F - 70.3 °F 88% 29.84 in 10.0 mi Calm Calm - N/A   Clear